Weather History for Cork, Ireland

Change the Weather History Date:

Sunday, May 26, 2013

  Actual Average Record
Temperature  
Mean Temperature 52 °F -  
Max Temperature 57 °F 61 °F 69 °F (1997)
Min Temperature 46 °F 48 °F 41 °F (2002)
Degree Days  
Heating Degree Days 14    
Growing Degree Days 2 (Base 50)    
Moisture  
Dew Point 48 °F    
Average Humidity 92    
Maximum Humidity 100    
Minimum Humidity 72    
Precipitation  
Precipitation 0.04 in 0.09 in - ()
Sea Level Pressure  
Sea Level Pressure 30.06 in    
Wind  
Wind Speed 8 mph ()    
Max Wind Speed 20 mph    
Max Gust Speed 32 mph    
Visibility 6.8 miles    
Events Rain    
Averages and records for this station are not official NWS values.
T = Trace of Precipitation, MM = Missing Value Source: Averaged Metar Reports

Daily Weather History Graph

Daily Weather History Graph

Search for Another Location

Airport:

Trip Planner

Search our weather history database for the weather conditions in past years. The results will help you decide how hot, cold, wet, or windy it might be!

Date:

Astronomy

May. 26, 2013 Rise Set
Actual Time 5:26 AM IST 9:36 PM IST
Civil Twilight 4:41 AM IST 10:21 PM IST
Nautical Twilight 3:36 AM IST 11:26 PM IST
Astronomical Twilight 2:03 AM IST 12:58 AM IST
Moon 11:07 PM IST (5/26) 6:42 AM IST (5/26)
Length of Visible Light 17h 39m
Length of Day
16h 10m
Full, 97% of the Moon is Illuminated
May 26
Full
May 31
Last Quarter
Jun 8
New
Jun 16
First Quarter
Jun 23
Full

Hourly Weather History & Observations

Time (IST) Temp. Windchill Dew Point Humidity Pressure Visibility Wind Dir Wind Speed Gust Speed Precip Events Conditions
12:00 AM 46.4 °F 44.3 °F 46.4 °F 100% 30.18 in 6.2 mi South 4.6 mph - N/A   Mostly Cloudy
12:30 AM 46.4 °F 44.3 °F 46.4 °F 100% 30.18 in 6.2 mi South 4.6 mph - N/A   Mostly Cloudy
1:00 AM 47 °F - 47 °F 99% 30.21 in 16 mi South 4.5 mph - -   Partly Cloudy
1:00 AM 46.4 °F 44.3 °F 46.4 °F 100% 30.18 in 6.2 mi South 4.6 mph - N/A   Mostly Cloudy
1:30 AM 48.2 °F - 46.4 °F 93% 30.18 in 6.2 mi South 3.5 mph - N/A   Mostly Cloudy
2:00 AM 48.2 °F - 46.4 °F 93% 30.18 in 6.2 mi South 3.5 mph - N/A   Mostly Cloudy
2:30 AM 48.2 °F - 48.2 °F 100% 30.18 in 6.2 mi SSW 3.5 mph - N/A   Mostly Cloudy
3:00 AM 48.2 °F - 48.2 °F 100% 30.15 in 6.2 mi SSW 2.3 mph - N/A   Mostly Cloudy
3:30 AM 48.2 °F - 48.2 °F 100% 30.15 in 6.2 mi SSW 4.6 mph - N/A   Mostly Cloudy
4:00 AM 46.4 °F 45.2 °F 46.4 °F 100% 30.15 in 6.2 mi SSW 3.5 mph - N/A   Light Drizzle
4:30 AM 46.4 °F 45.2 °F 46.4 °F 100% 30.15 in 6.2 mi SSW 3.5 mph - N/A   Mostly Cloudy
5:00 AM 46.4 °F 45.2 °F 46.4 °F 100% 30.15 in 6.2 mi SSW 3.5 mph - N/A   Mostly Cloudy
5:30 AM 46.4 °F - 46.4 °F 100% 30.15 in 6.2 mi SSW 2.3 mph - N/A   Mostly Cloudy
6:00 AM 46.4 °F 45.2 °F 46.4 °F 100% 30.12 in 6.2 mi SW 3.5 mph - N/A   Mostly Cloudy
6:30 AM 46.4 °F 44.3 °F 46.4 °F 100% 30.12 in 6.2 mi SW 4.6 mph - N/A   Mostly Cloudy
7:00 AM 47 °F - 47 °F 99% 30.16 in 16 mi SW 4.5 mph - -   Partly Cloudy
7:00 AM 48.2 °F - 46.4 °F 93% 30.12 in 6.2 mi SW 3.5 mph - N/A   Mostly Cloudy
7:30 AM 48.2 °F - 46.4 °F 93% 30.12 in 6.2 mi South 4.6 mph - N/A   Mostly Cloudy
8:00 AM 48.2 °F - 48.2 °F 100% 30.12 in 6.2 mi SW 4.6 mph - N/A   Mostly Cloudy
8:30 AM 50.0 °F - 48.2 °F 94% 30.12 in 6.2 mi SSW 4.6 mph - N/A   Mostly Cloudy
9:00 AM 50.0 °F - 50.0 °F 100% 30.12 in 6.2 mi SSW 5.8 mph - N/A   Mostly Cloudy
9:30 AM 51.8 °F - 48.2 °F 88% 30.12 in 6.2 mi SSW 6.9 mph - N/A   Scattered Clouds
10:00 AM 51.8 °F - 50.0 °F 94% 30.12 in 6.2 mi South 6.9 mph - N/A   Mostly Cloudy
10:30 AM 53.6 °F - 50.0 °F 88% 30.12 in 6.2 mi South 9.2 mph - N/A   Scattered Clouds
11:00 AM 53.6 °F - 50.0 °F 88% 30.09 in 6.2 mi SSW 11.5 mph - N/A   Mostly Cloudy
11:30 AM 53.6 °F - 50.0 °F 88% 30.09 in 6.2 mi South 11.5 mph - N/A   Mostly Cloudy
12:00 PM 53.6 °F - 50.0 °F 88% 30.09 in 6.2 mi SSW 15.0 mph - N/A   Mostly Cloudy
12:30 PM 55.4 °F - 50.0 °F 82% 30.09 in 6.2 mi SSW 15.0 mph - N/A   Mostly Cloudy
1:00 PM 56 °F - 50 °F 73% 30.09 in 19 mi SSW 15.7 mph - -   Mostly Cloudy
1:00 PM 55.4 °F - 50.0 °F 82% 30.09 in 6.2 mi SSW 15.0 mph - N/A   Scattered Clouds
1:30 PM 55.4 °F - 50.0 °F 82% 30.06 in 6.2 mi SSW 17.3 mph - N/A   Mostly Cloudy
2:00 PM 55.4 °F - 50.0 °F 82% 30.06 in 6.2 mi SSW 17.3 mph - N/A   Mostly Cloudy
2:30 PM 53.6 °F - 50.0 °F 88% 30.06 in 6.2 mi SSW 17.3 mph - N/A   Mostly Cloudy
3:00 PM 55.4 °F - 50.0 °F 82% 30.04 in 6.2 mi SSW 19.6 mph - N/A   Mostly Cloudy
3:30 PM 53.6 °F - 44.6 °F 72% 30.04 in 6.2 mi South 13.8 mph - N/A   Mostly Cloudy
4:00 PM 55.4 °F - 48.2 °F 77% 30.04 in 6.2 mi SSW 17.3 mph - N/A   Mostly Cloudy
4:30 PM 53.6 °F - 48.2 °F 82% 30.01 in 6.2 mi SSW 15.0 mph - N/A   Mostly Cloudy
5:00 PM 51.8 °F - 48.2 °F 88% 30.01 in 6.2 mi SSW 17.3 mph - N/A Rain Light Rain
5:30 PM 51.8 °F - 48.2 °F 88% 30.01 in 6.2 mi SSW 16.1 mph - N/A   Mostly Cloudy
6:00 PM 51.8 °F - 48.2 °F 88% 29.98 in 6.2 mi SSW 17.3 mph - N/A   Mostly Cloudy
6:30 PM 51.8 °F - 48.2 °F 88% 29.95 in 6.2 mi SSW 17.3 mph - N/A   Mostly Cloudy
7:00 PM 51 °F - 48 °F 86% 29.96 in 12 mi SSW 17.9 mph - - Rain Light Rain
7:00 PM 50.0 °F - 48.2 °F 94% 29.95 in 6.2 mi SSW 18.4 mph - N/A Rain Light Rain
7:30 PM 51.8 °F - 48.2 °F 88% 29.95 in 6.2 mi SSW 18.4 mph - N/A   Mostly Cloudy
8:00 PM 50.0 °F - 48.2 °F 94% 29.92 in 6.2 mi SSW 16.1 mph - N/A   Overcast
8:30 PM 50.0 °F - 48.2 °F 94% 29.92 in 6.2 mi SSW 15.0 mph - N/A   Mostly Cloudy
9:00 PM 50.0 °F - 48.2 °F 94% 29.89 in 6.2 mi SSW 16.1 mph - N/A   Overcast
9:30 PM 50.0 °F - 48.2 °F 94% 29.89 in 6.2 mi SSW 16.1 mph - N/A   Overcast
10:00 PM 50.0 °F - 48.2 °F 94% 29.86 in 6.2 mi South 17.3 mph - N/A   Overcast
10:30 PM 50.0 °F - 48.2 °F 94% 29.86 in 6.2 mi SSW 16.1 mph - N/A   Overcast
11:00 PM 50.0 °F - 50.0 °F 100% 29.83 in 6.2 mi SSW 18.4 mph 32.2 mph N/A Rain Light Rain
11:30 PM 50.0 °F - 50.0 °F 100% 29.80 in 1.6 mi SSW 17.3 mph - N/A Rain Light Rain